Location: Boston
(42.3580°N, 71.0600°W)
Time: 14:18:03
(UTC-05:00)

Envisat - Pass Details

Date: 16 October 2017
Orbit: 764 x 766 km, 98.2° (Epoch: 10 December)

Event Time Altitude Azimuth Distance (km) Brightness Sun altitude
Exits shadow 19:06:01 16° 67° (ENE) 1,930 4.5 -12.9°
Maximum altitude 19:06:26 16° 61° (ENE) 1,923 4.5 -13.0°
Drops below altitude 10° 19:09:26 10° 24° (NNE) 2,313 5.2 -13.5°
Sets 19:12:35 0° 4° (N) 3,245 6.2 -14.1°
